QPF
0.03 0.02 0.02 0.02 0.03 0.03 0.02 0.02 0.02 0.02 0.03 0.02 0.02 0.01 0.01 0.02 0.02 0.04 0.03 0.03 0.03 0.03 0.02 0.02 0.02 0.02 0.04 0.03 0.04 0.04 0.05 0.05 0.05 0.05 0.05 0.05 0.05 0.05 0.05 0.04 0.04 0.04 0.04
0.02 0.02 0.03 0.03 0.03 0.03 0.02 0.02 0.01 0.02 0.02 0.02 0.02 0.01 0.01 0.01 0.02 0.03 0.02 0.02 0.03 0.02 0.02 0.02 0.02 0.02 0.04 0.04 0.04 0.04 0.05 0.06 0.06 0.06 0.05 0.05 0.04 0.05 0.05 0.04 0.03 0.03 0.04
0.04 0.03 0.03 0.02 0.02 0.02 0.03 0.02 0.01 0.01 0.01 0.01 0.01 0.01 0.01 0.01 0.01 0.01 0.02 0.02 0.02 0.02 0.02 0.02 0.02 0.02 0.03 0.04 0.04 0.04 0.04 0.04 0.05 0.05 0.05 0.06 0.06 0.06 0.05 0.03 0.02 0.03 0.03
0.03 0.02 0.02 0.03 0.02 0.02 0.02 0.02 0.01 0.01 0.01 0.01 0.01 0.01 0.01 0.01 0.01 0.01 0.01 0.01 0.01 0.02 0.02 0.02 0.02 0.02 0.03 0.04 0.04 0.04 0.04 0.03 0.04 0.04 0.04 0.05 0.06 0.06 0.06 0.05 0.04 0.03 0.03
0.02 0.02 0.01 0.02 0.02 0.02 0.03 0.03 0.02 0.02 0.01 0.01 0.01 0.01 0.01 0.01 0.01 0.01 0.01 0.02 0.03 0.03 0.03 0.02 0.02 0.01 0.01 0.02 0.02 0.03 0.03 0.04 0.04 0.04 0.04 0.04 0.05 0.05 0.05 0.06 0.06 0.05 0.04
0.03 0.03 0.03 0.03 0.02 0.02 0.02 0.02 0.02 0.03 0.02 0.02 0.01 0.02 0.02 0.01 0.01 0.01 0.01 0.04 0.04 0.04 0.03 0.02 0.01 0.01 0.01 0.01 0.01 0.02 0.02 0.03 0.04 0.04 0.04 0.05 0.06 0.05 0.05 0.06 0.07 0.07 0.06
0.04 0.04 0.04 0.03 0.02 0.02 0.02 0.03 0.05 0.04 0.03 0.03 0.02 0.03 0.03 0.01 0.01 0.02 0.02 0.04 0.05 0.03 0.02 0.02 0.01 0.01 0.01 0.02 0.02 0.02 0.02 0.02 0.03 0.04 0.04 0.06 0.06 0.06 0.07 0.07 0.08 0.08 0.07
0.05 0.04 0.03 0.03 0.03 0.03 0.03 0.03 0.05 0.05 0.04 0.03 0.03 0.03 0.03 0.02 0.02 0.03 0.03 0.03 0.04 0.03 0.02 0.02 0.02 0.02 0.01 0.02 0.03 0.03 0.04 0.04 0.03 0.04 0.05 0.06 0.05 0.05 0.06 0.06 0.07 0.08 0.07
0.04 0.04 0.02 0.02 0.02 0.03 0.03 0.03 0.04 0.04 0.03 0.03 0.03 0.03 0.03 0.02 0.02 0.02 0.02 0.02 0.03 0.03 0.02 0.02 0.02 0.02 0.01 0.02 0.03 0.05 0.05 0.04 0.03 0.05 0.05 0.05 0.04 0.04 0.04 0.05 0.07 0.08 0.08
0.03 0.03 0.03 0.02 0.03 0.03 0.03 0.04 0.04 0.03 0.03 0.03 0.03 0.02 0.02 0.02 0.02 0.01 0.01 0.02 0.03 0.03 0.03 0.02 0.02 0.02 0.03 0.03 0.03 0.05 0.05 0.04 0.03 0.04 0.04 0.05 0.05 0.06 0.05 0.05 0.07 0.07 0.06
0.04 0.05 0.06 0.05 0.04 0.03 0.03 0.04 0.03 0.02 0.02 0.03 0.04 0.03 0.02 0.02 0.02 0.01 0.01 0.01 0.02 0.02 0.02 0.03 0.03 0.04 0.04 0.04 0.04 0.04 0.04 0.04 0.05 0.06 0.07 0.08 0.09 0.08 0.08 0.07 0.07 0.06 0.05
0.04 0.06 0.07 0.06 0.03 0.02 0.01 0.02 0.02 0.02 0.02 0.02 0.02 0.02 0.02 0.01 0.01 0.01 0.02 0.01 0.01 0.02 0.02 0.01 0.02 0.03 0.04 0.06 0.06 0.06 0.05 0.04 0.06 0.06 0.07 0.08 0.09 0.08 0.07 0.07 0.06 0.04 0.04
0.04 0.05 0.05 0.03 0.02 0.02 0.01 0.02 0.01 0.01 0.01 0.00 0.00 0.01 0.01 0.01 0.00 0.01 0.01 0.01 0.01 0.01 0.01 0.01 0.01 0.02 0.02 0.03 0.03 0.03 0.02 0.04 0.05 0.05 0.06 0.06 0.06 0.05 0.04 0.04 0.03 0.03 0.03
0.04 0.03 0.03 0.03 0.03 0.02 0.01 0.01 0.01 0.01 0.01 0.01 0.00 0.01 0.01 0.01 0.00 0.01 0.02 0.02 0.02 0.02 0.02 0.01 0.01 0.01 0.02 0.02 0.02 0.02 0.02 0.03 0.04 0.05 0.05 0.05 0.04 0.03 0.02 0.02 0.02 0.03 0.02
0.03 0.02 0.02 0.02 0.02 0.01 0.01 0.00 0.00 0.00 0.00 0.00 0.00 0.00 0.01 0.01 0.00 0.01 0.02 0.02 0.02 0.02 0.02 0.02 0.02 0.02 0.02 0.02 0.02 0.02 0.02 0.02 0.02 0.03 0.03 0.04 0.04 0.03 0.03 0.02 0.02 0.02 0.02
0.02 0.02 0.02 0.01 0.01 0.01 0.01 0.00 0.00 0.00 0.00 0.00 0.00 0.00 0.00 0.00 0.00 0.01 0.01 0.02 0.02 0.01 0.01 0.02 0.02 0.01 0.01 0.02 0.02 0.01 0.01 0.01 0.01 0.01 0.01 0.01 0.01 0.01 0.01 0.01 0.01 0.02 0.02
0.04 0.02 0.01 0.01 0.01 0.01 0.01 0.01 0.00 0.00 0.00 0.00 0.00 0.00 0.00 0.01 0.01 0.01 0.01 0.01 0.01 0.01 0.00 0.01 0.01 0.01 0.01 0.01 0.01 0.00 0.00 0.00 0.00 0.00 0.00 0.00 0.01 0.01 0.01 0.01 0.00 0.01 0.01
0.03 0.02 0.01 0.01 0.01 0.01 0.01 0.01 0.01 0.01 0.00 0.00 0.00 0.00 0.01 0.01 0.01 0.01 0.01 0.01 0.00 0.00 0.00 0.00 0.00 0.00 0.00 0.00 0.00 0.00 0.00 0.00 0.00 0.00 0.00 0.00 0.00 0.00 0.00 0.00 0.00 0.00 0.00
0.01 0.01 0.01 0.01 0.01 0.01 0.00 0.01 0.01 0.01 0.01 0.00 0.00 0.00 0.00 0.01 0.02 0.02 0.01 0.01 0.00 0.00 0.00 0.00 0.00 0.00 0.00 0.00 0.00 0.00 0.00 0.00 0.00 0.00 0.00 0.00 0.00 0.00 0.00 0.00 0.00 0.00 0.00
0.00 0.00 0.00 0.00 0.00 0.00 0.01 0.01 0.01 0.01 0.01 0.01 0.00 0.00 0.00 0.00 0.01 0.01 0.01 0.01 0.00 0.00 0.00 0.00 0.00 0.00 0.00 0.00 0.00 0.00 0.00 0.00 0.00 0.00 0.00 0.00 0.00 0.00 0.00 0.00 0.00 0.00 0.00
0.00 0.00 0.00 0.00 0.00 0.00 0.00 0.00 0.00 0.00 0.00 0.00 0.00 0.00 0.00 0.00 0.00 0.00 0.00 0.00 0.00 0.00 0.00 0.00 0.00 0.00 0.00 0.00 0.00 0.00 0.00 0.00 0.00 0.00 0.00 0.00 0.00 0.00 0.00 0.00 0.00 0.00 0.00
0.00 0.00 0.00 0.00 0.00 0.00 0.00 0.00 0.00 0.00 0.00 0.00 0.00 0.00 0.00 0.00 0.00 0.00 0.00 0.00 0.00 0.00 0.00 0.00 0.00 0.00 0.00 0.00 0.00 0.00 0.00 0.00 0.00 0.00 0.00 0.00 0.00 0.00 0.00 0.00 0.00 0.00 0.00
0.00 0.00 0.00 0.00 0.00 0.00 0.00 0.00 0.00 0.00 0.00 0.00 0.00 0.00 0.00 0.00 0.00 0.00 0.00 0.00 0.00 0.00 0.00 0.00 0.00 0.00 0.00 0.00 0.00 0.00 0.00 0.00 0.00 0.00 0.00 0.00 0.00 0.00 0.00 0.00 0.00 0.00 0.00
0.00 0.00 0.00 0.00 0.00 0.00 0.00 0.00 0.00 0.00 0.00 0.00 0.00 0.00 0.00 0.00 0.00 0.00 0.00 0.00 0.00 0.00 0.00 0.00 0.00 0.00 0.00 0.00 0.00 0.00 0.00 0.00 0.00 0.00 0.00 0.00 0.00 0.00 0.00 0.00 0.00 0.00 0.00
0.00 0.00 0.00 0.00 0.00 0.00 0.00 0.00 0.00 0.00 0.00 0.00 0.00 0.00 0.00 0.00 0.00 0.00 0.00 0.00 0.00 0.00 0.00 0.00 0.00 0.00 0.00 0.00 0.00 0.00 0.00 0.00 0.00 0.00 0.00 0.00 0.00 0.00 0.00 0.00 0.00 0.00 0.00
0.00 0.00 0.00 0.00 0.00 0.00 0.00 0.00 0.00 0.00 0.00 0.00 0.00 0.00 0.00 0.01 0.01 0.00 0.00 0.00 0.00 0.00 0.00 0.00 0.00 0.00 0.00 0.00 0.00 0.00 0.00 0.00 0.00 0.00 0.00 0.00 0.00 0.00 0.00 0.00 0.00 0.00 0.00
MSLP
1014.32 1014.76 1015.13 1015.42 1015.62 1015.74 1015.81 1015.85 1015.89 1015.96 1016.07 1016.21 1016.39 1016.58 1016.76 1016.91 1017.04 1017.12 1017.17 1017.19 1017.20 1017.19 1017.17 1017.16 1017.14 1017.13 1017.13 1017.17 1017.25 1017.40 1017.64 1017.97 1018.38 1018.85 1019.35 1019.85 1020.30 1020.68 1020.97 1021.18 1021.31 1021.40 1021.48
1015.17 1015.54 1015.84 1016.07 1016.22 1016.32 1016.37 1016.41 1016.46 1016.54 1016.65 1016.80 1016.97 1017.15 1017.31 1017.45 1017.55 1017.61 1017.64 1017.63 1017.59 1017.54 1017.46 1017.38 1017.29 1017.21 1017.14 1017.12 1017.16 1017.28 1017.51 1017.83 1018.25 1018.75 1019.29 1019.83 1020.33 1020.77 1021.12 1021.38 1021.56 1021.69 1021.79
1016.09 1016.38 1016.60 1016.77 1016.87 1016.94 1016.98 1017.02 1017.09 1017.18 1017.30 1017.45 1017.62 1017.79 1017.94 1018.06 1018.14 1018.18 1018.18 1018.14 1018.07 1017.98 1017.86 1017.73 1017.58 1017.44 1017.33 1017.25 1017.25 1017.33 1017.53 1017.83 1018.24 1018.72 1019.26 1019.81 1020.33 1020.78 1021.15 1021.43 1021.62 1021.76 1021.86
1017.07 1017.27 1017.41 1017.51 1017.56 1017.59 1017.63 1017.67 1017.75 1017.85 1017.99 1018.14 1018.31 1018.46 1018.59 1018.68 1018.74 1018.76 1018.73 1018.68 1018.58 1018.46 1018.31 1018.15 1017.97 1017.79 1017.63 1017.52 1017.47 1017.51 1017.66 1017.92 1018.28 1018.73 1019.24 1019.76 1020.26 1020.70 1021.06 1021.33 1021.52 1021.64 1021.72
1018.07 1018.18 1018.24 1018.27 1018.27 1018.27 1018.28 1018.33 1018.41 1018.53 1018.67 1018.82 1018.98 1019.11 1019.21 1019.28 1019.31 1019.30 1019.25 1019.17 1019.06 1018.92 1018.76 1018.57 1018.37 1018.17 1017.98 1017.83 1017.73 1017.73 1017.82 1018.03 1018.33 1018.73 1019.18 1019.65 1020.11 1020.52 1020.86 1021.11 1021.28 1021.39 1021.44
1019.04 1019.06 1019.04 1019.00 1018.95 1018.92 1018.92 1018.96 1019.04 1019.16 1019.30 1019.45 1019.58 1019.69 1019.77 1019.80 1019.80 1019.76 1019.68 1019.58 1019.46 1019.31 1019.14 1018.94 1018.73 1018.51 1018.29 1018.11 1017.97 1017.91 1017.95 1018.09 1018.33 1018.66 1019.05 1019.47 1019.88 1020.26 1020.57 1020.80 1020.96 1021.05 1021.08
1019.90 1019.84 1019.75 1019.64 1019.55 1019.48 1019.47 1019.51 1019.59 1019.71 1019.84 1019.97 1020.09 1020.17 1020.21 1020.21 1020.17 1020.10 1020.01 1019.89 1019.76 1019.60 1019.43 1019.23 1019.01 1018.77 1018.54 1018.32 1018.15 1018.04 1018.01 1018.08 1018.26 1018.52 1018.85 1019.22 1019.59 1019.94 1020.23 1020.46 1020.61 1020.69 1020.71
1020.56 1020.43 1020.28 1020.13 1020.01 1019.93 1019.90 1019.94 1020.02 1020.13 1020.26 1020.39 1020.48 1020.54 1020.55 1020.52 1020.46 1020.36 1020.25 1020.12 1019.97 1019.82 1019.64 1019.44 1019.22 1018.97 1018.72 1018.48 1018.26 1018.11 1018.03 1018.04 1018.15 1018.35 1018.63 1018.96 1019.30 1019.62 1019.91 1020.13 1020.28 1020.36 1020.37
1020.98 1020.81 1020.62 1020.45 1020.31 1020.23 1020.21 1020.24 1020.33 1020.45 1020.58 1020.69 1020.78 1020.82 1020.82 1020.77 1020.69 1020.58 1020.45 1020.31 1020.17 1020.01 1019.84 1019.64 1019.41 1019.16 1018.89 1018.62 1018.38 1018.18 1018.06 1018.02 1018.08 1018.23 1018.46 1018.75 1019.07 1019.38 1019.65 1019.87 1020.02 1020.10 1020.11
1021.17 1020.98 1020.79 1020.62 1020.49 1020.42 1020.41 1020.46 1020.56 1020.69 1020.82 1020.94 1021.02 1021.06 1021.05 1021.00 1020.92 1020.80 1020.68 1020.54 1020.39 1020.24 1020.06 1019.86 1019.63 1019.38 1019.10 1018.82 1018.56 1018.34 1018.18 1018.10 1018.12 1018.23 1018.42 1018.67 1018.96 1019.24 1019.50 1019.71 1019.85 1019.92 1019.92
1021.19 1021.01 1020.84 1020.69 1020.59 1020.54 1020.56 1020.63 1020.75 1020.89 1021.04 1021.17 1021.26 1021.31 1021.31 1021.27 1021.19 1021.08 1020.96 1020.83 1020.69 1020.53 1020.36 1020.16 1019.93 1019.67 1019.39 1019.10 1018.83 1018.60 1018.42 1018.32 1018.31 1018.39 1018.54 1018.75 1018.99 1019.24 1019.46 1019.64 1019.76 1019.80 1019.77
1021.12 1020.98 1020.85 1020.75 1020.69 1020.68 1020.72 1020.82 1020.96 1021.12 1021.28 1021.42 1021.53 1021.60 1021.62 1021.59 1021.53 1021.43 1021.32 1021.19 1021.04 1020.88 1020.70 1020.50 1020.27 1020.01 1019.74 1019.46 1019.19 1018.96 1018.78 1018.67 1018.64 1018.68 1018.80 1018.96 1019.15 1019.34 1019.50 1019.63 1019.69 1019.69 1019.62
1021.06 1020.99 1020.92 1020.87 1020.85 1020.88 1020.95 1021.07 1021.22 1021.39 1021.56 1021.72 1021.84 1021.92 1021.96 1021.95 1021.90 1021.82 1021.70 1021.57 1021.42 1021.24 1021.05 1020.84 1020.60 1020.35 1020.08 1019.81 1019.57 1019.35 1019.19 1019.08 1019.03 1019.05 1019.12 1019.23 1019.35 1019.47 1019.55 1019.60 1019.59 1019.53 1019.41
1021.09 1021.09 1021.08 1021.09 1021.11 1021.16 1021.25 1021.37 1021.52 1021.69 1021.86 1022.02 1022.16 1022.25 1022.30 1022.30 1022.26 1022.17 1022.05 1021.90 1021.72 1021.53 1021.31 1021.08 1020.83 1020.58 1020.32 1020.08 1019.86 1019.67 1019.52 1019.43 1019.38 1019.38 1019.41 1019.46 1019.51 1019.53 1019.53 1019.48 1019.39 1019.25 1019.07
1021.24 1021.30 1021.34 1021.38 1021.43 1021.49 1021.57 1021.69 1021.82 1021.98 1022.14 1022.29 1022.42 1022.52 1022.56 1022.56 1022.51 1022.41 1022.27 1022.09 1021.88 1021.65 1021.40 1021.14 1020.87 1020.62 1020.37 1020.15 1019.96 1019.81 1019.70 1019.62 1019.58 1019.56 1019.56 1019.55 1019.52 1019.46 1019.36 1019.22 1019.04 1018.83 1018.59
1021.48 1021.57 1021.64 1021.69 1021.74 1021.79 1021.85 1021.94 1022.04 1022.17 1022.31 1022.44 1022.56 1022.64 1022.68 1022.67 1022.60 1022.48 1022.30 1022.08 1021.83 1021.54 1021.25 1020.96 1020.68 1020.41 1020.18 1019.98 1019.83 1019.71 1019.63 1019.58 1019.55 1019.53 1019.49 1019.43 1019.34 1019.20 1019.01 1018.79 1018.53 1018.25 1017.97
1021.72 1021.82 1021.89 1021.93 1021.95 1021.97 1021.99 1022.04 1022.11 1022.20 1022.31 1022.42 1022.52 1022.59 1022.61 1022.58 1022.49 1022.34 1022.13 1021.86 1021.56 1021.23 1020.89 1020.56 1020.26 1019.99 1019.76 1019.59 1019.46 1019.38 1019.34 1019.32 1019.30 1019.27 1019.21 1019.11 1018.97 1018.76 1018.52 1018.23 1017.91 1017.58 1017.26
1021.88 1021.96 1022.00 1022.00 1021.98 1021.95 1021.93 1021.93 1021.96 1022.02 1022.10 1022.19 1022.27 1022.33 1022.34 1022.30 1022.19 1022.02 1021.77 1021.47 1021.12 1020.75 1020.38 1020.02 1019.70 1019.43 1019.21 1019.05 1018.95 1018.90 1018.88 1018.88 1018.88 1018.85 1018.78 1018.65 1018.47 1018.22 1017.93 1017.60 1017.24 1016.89 1016.55
1021.90 1021.93 1021.91 1021.85 1021.78 1021.70 1021.63 1021.59 1021.59 1021.63 1021.69 1021.77 1021.85 1021.90 1021.92 1021.87 1021.75 1021.56 1021.30 1020.97 1020.60 1020.21 1019.82 1019.44 1019.11 1018.84 1018.63 1018.49 1018.41 1018.38 1018.38 1018.39 1018.39 1018.36 1018.28 1018.13 1017.93 1017.66 1017.34 1016.99 1016.62 1016.26 1015.92
1021.76 1021.71 1021.62 1021.50 1021.37 1021.24 1021.13 1021.07 1021.05 1021.07 1021.13 1021.21 1021.29 1021.36 1021.38 1021.34 1021.23 1021.04 1020.78 1020.45 1020.08 1019.68 1019.29 1018.92 1018.59 1018.33 1018.13 1018.00 1017.94 1017.92 1017.93 1017.94 1017.94 1017.90 1017.81 1017.65 1017.43 1017.15 1016.83 1016.47 1016.10 1015.74 1015.41
1021.47 1021.34 1021.18 1021.00 1020.81 1020.64 1020.51 1020.43 1020.40 1020.42 1020.49 1020.58 1020.68 1020.76 1020.80 1020.78 1020.69 1020.52 1020.28 1019.97 1019.62 1019.24 1018.87 1018.52 1018.21 1017.96 1017.78 1017.67 1017.61 1017.60 1017.60 1017.61 1017.60 1017.54 1017.43 1017.26 1017.03 1016.75 1016.43 1016.08 1015.72 1015.37 1015.05
1021.09 1020.89 1020.66 1020.42 1020.20 1020.01 1019.86 1019.77 1019.75 1019.78 1019.86 1019.96 1020.08 1020.18 1020.23 1020.24 1020.17 1020.03 1019.81 1019.54 1019.22 1018.88 1018.55 1018.24 1017.97 1017.75 1017.59 1017.50 1017.44 1017.43 1017.42 1017.41 1017.38 1017.30 1017.18 1016.99 1016.75 1016.47 1016.15 1015.81 1015.46 1015.13 1014.81
1020.70 1020.43 1020.16 1019.88 1019.64 1019.43 1019.28 1019.20 1019.17 1019.21 1019.29 1019.40 1019.53 1019.63 1019.70 1019.72 1019.67 1019.56 1019.38 1019.15 1018.87 1018.59 1018.30 1018.04 1017.81 1017.64 1017.51 1017.43 1017.39 1017.36 1017.35 1017.32 1017.26 1017.16 1017.00 1016.80 1016.55 1016.26 1015.94 1015.61 1015.28 1014.96 1014.65
1020.35 1020.05 1019.74 1019.45 1019.19 1018.98 1018.83 1018.74 1018.72 1018.75 1018.83 1018.93 1019.04 1019.14 1019.20 1019.22 1019.18 1019.08 1018.93 1018.74 1018.51 1018.28 1018.05 1017.84 1017.66 1017.53 1017.44 1017.38 1017.34 1017.32 1017.29 1017.24 1017.16 1017.03 1016.86 1016.63 1016.37 1016.07 1015.76 1015.44 1015.11 1014.80 1014.50
1020.06 1019.75 1019.44 1019.14 1018.88 1018.67 1018.52 1018.42 1018.39 1018.40 1018.45 1018.53 1018.61 1018.68 1018.72 1018.72 1018.67 1018.58 1018.44 1018.28 1018.09 1017.90 1017.72 1017.57 1017.44 1017.35 1017.29 1017.26 1017.24 1017.22 1017.19 1017.12 1017.02 1016.87 1016.67 1016.43 1016.16 1015.85 1015.54 1015.22 1014.90 1014.60 1014.31
1019.83 1019.52 1019.22 1018.94 1018.69 1018.48 1018.32 1018.21 1018.15 1018.13 1018.14 1018.18 1018.21 1018.24 1018.24 1018.20 1018.13 1018.03 1017.90 1017.75 1017.59 1017.44 1017.30 1017.19 1017.11 1017.06 1017.03 1017.03 1017.03 1017.01 1016.98 1016.91 1016.80 1016.64 1016.43 1016.18 1015.89 1015.58 1015.26 1014.94 1014.63 1014.34 1014.05
Thickness
5630 5625 5620 5616 5613 5610 5606 5604 5601 5598 5597 5597 5597 5596 5596 5596 5596 5595 5595 5595 5595 5595 5595 5594 5594 5594 5594 5594 5595 5595 5594 5594 5591 5591 5591 5592 5592 5592 5593 5594 5594 5595 5595
5622 5617 5613 5609 5606 5602 5599 5596 5594 5592 5591 5591 5590 5589 5588 5588 5587 5587 5587 5587 5586 5586 5586 5585 5585 5586 5585 5586 5586 5587 5586 5586 5585 5583 5584 5584 5585 5586 5587 5587 5588 5589 5589
5616 5611 5606 5602 5598 5594 5591 5589 5587 5585 5584 5583 5583 5582 5581 5581 5580 5580 5579 5579 5578 5578 5577 5577 5577 5577 5576 5577 5578 5578 5579 5580 5579 5578 5577 5578 5578 5579 5580 5581 5582 5583 5584
5611 5605 5600 5596 5592 5588 5586 5583 5581 5580 5578 5577 5576 5575 5575 5574 5572 5571 5571 5571 5571 5571 5570 5570 5569 5569 5569 5569 5570 5570 5571 5571 5572 5572 5572 5572 5573 5574 5574 5574 5575 5577 5578
5605 5600 5595 5591 5587 5584 5581 5579 5576 5575 5574 5572 5572 5570 5569 5568 5564 5563 5563 5565 5565 5565 5564 5564 5563 5563 5562 5562 5563 5563 5564 5565 5566 5566 5566 5567 5567 5567 5568 5569 5570 5571 5572
5599 5595 5591 5587 5583 5580 5577 5575 5573 5571 5570 5568 5567 5566 5564 5561 5558 5557 5556 5558 5559 5559 5559 5559 5558 5558 5557 5557 5557 5558 5559 5560 5561 5562 5562 5563 5563 5564 5564 5565 5565 5565 5566
5595 5590 5587 5583 5579 5576 5574 5571 5569 5567 5566 5564 5563 5561 5559 5556 5554 5553 5553 5554 5555 5555 5555 5555 5556 5555 5554 5553 5554 5555 5556 5557 5558 5559 5559 5560 5561 5562 5562 5562 5562 5562 5563
5590 5587 5583 5580 5577 5574 5571 5568 5566 5564 5562 5561 5560 5558 5556 5553 5551 5551 5551 5553 5553 5553 5552 5551 5551 5550 5550 5550 5552 5554 5554 5555 5556 5558 5559 5560 5561 5560 5560 5560 5561 5561 5563
5587 5583 5580 5577 5574 5571 5568 5565 5563 5562 5560 5559 5558 5556 5554 5551 5550 5550 5549 5551 5551 5551 5550 5549 5549 5548 5547 5548 5549 5551 5552 5553 5554 5556 5558 5559 5559 5559 5558 5557 5558 5559 5560
5585 5581 5578 5575 5572 5569 5566 5563 5562 5561 5559 5558 5557 5556 5554 5552 5550 5549 5549 5551 5550 5549 5548 5548 5547 5546 5546 5546 5547 5548 5549 5551 5553 5555 5557 5558 5559 5559 5559 5558 5558 5558 5559
5583 5580 5576 5573 5570 5568 5565 5563 5561 5560 5559 5558 5557 5556 5555 5553 5551 5549 5549 5550 5550 5549 5549 5548 5547 5546 5546 5546 5546 5547 5549 5550 5552 5555 5557 5559 5559 5559 5559 5559 5559 5560 5559
5581 5577 5574 5572 5570 5568 5565 5563 5562 5561 5560 5559 5558 5557 5556 5555 5553 5551 5550 5549 5549 5549 5549 5549 5547 5546 5547 5547 5548 5549 5550 5551 5553 5555 5557 5559 5559 5560 5560 5561 5562 5562 5563
5579 5576 5574 5572 5570 5568 5566 5565 5564 5563 5562 5562 5561 5560 5559 5558 5555 5554 5552 5552 5551 5549 5550 5549 5549 5548 5549 5550 5552 5552 5553 5554 5555 5557 5558 5559 5561 5562 5563 5562 5563 5564 5565
5579 5576 5574 5572 5571 5570 5568 5568 5567 5565 5564 5564 5563 5562 5561 5560 5558 5556 5556 5554 5553 5552 5552 5553 5553 5553 5553 5554 5555 5556 5557 5558 5559 5559 5560 5562 5563 5563 5563 5564 5564 5565 5564
5578 5576 5576 5575 5574 5572 5570 5568 5568 5566 5565 5564 5564 5563 5562 5561 5557 5555 5555 5556 5555 5554 5553 5556 5558 5559 5560 5561 5562 5563 5563 5563 5563 5564 5564 5564 5564 5565 5565 5566 5566 5566 5565
5579 5578 5578 5578 5577 5576 5574 5572 5569 5568 5566 5565 5564 5564 5563 5562 5560 5560 5559 5559 5558 5557 5557 5560 5563 5565 5566 5567 5568 5568 5568 5568 5568 5569 5568 5568 5567 5567 5567 5568 5569 5568 5567
5581 5580 5580 5581 5581 5581 5580 5578 5574 5571 5570 5569 5568 5567 5566 5566 5566 5565 5564 5563 5563 5562 5562 5566 5569 5571 5571 5572 5573 5573 5573 5573 5573 5573 5572 5572 5572 5571 5571 5571 5571 5571 5570
5584 5583 5583 5584 5585 5585 5585 5584 5583 5581 5578 5577 5576 5574 5573 5572 5571 5570 5568 5566 5570 5571 5572 5574 5576 5577 5578 5578 5578 5578 5577 5577 5577 5576 5576 5575 5575 5574 5574 5574 5574 5573 5573
5588 5588 5588 5589 5589 5590 5590 5590 5590 5588 5587 5587 5586 5583 5580 5578 5575 5574 5571 5571 5576 5580 5582 5584 5585 5585 5585 5585 5584 5583 5582 5581 5581 5580 5579 5578 5578 5577 5576 5576 5576 5575 5574
5591 5589 5589 5591 5593 5593 5594 5594 5594 5594 5593 5593 5592 5591 5589 5584 5583 5584 5581 5582 5583 5586 5589 5590 5591 5591 5590 5590 5589 5588 5587 5586 5585 5583 5582 5581 5581 5580 5579 5578 5578 5577 5576
5596 5595 5592 5594 5596 5597 5598 5598 5598 5598 5598 5599 5599 5599 5595 5594 5594 5595 5595 5593 5593 5594 5595 5595 5595 5595 5595 5594 5594 5592 5591 5589 5588 5587 5586 5584 5583 5582 5581 5580 5579 5579 5577
5601 5601 5600 5601 5601 5601 5602 5602 5603 5603 5604 5604 5604 5603 5600 5600 5601 5602 5602 5602 5602 5602 5602 5601 5600 5600 5599 5598 5596 5595 5593 5592 5591 5589 5587 5586 5585 5583 5582 5581 5580 5578 5576
5604 5605 5605 5606 5606 5604 5604 5606 5607 5607 5608 5608 5609 5608 5606 5605 5606 5607 5607 5607 5607 5606 5605 5604 5603 5603 5602 5601 5600 5598 5596 5594 5592 5591 5588 5586 5585 5583 5581 5580 5578 5577 5575
5609 5609 5609 5610 5610 5610 5610 5610 5611 5611 5612 5611 5611 5611 5611 5610 5610 5610 5610 5610 5609 5609 5608 5607 5606 5605 5604 5602 5601 5599 5597 5595 5593 5590 5588 5585 5584 5582 5581 5579 5577 5576 5574
5613 5614 5614 5614 5614 5614 5614 5614 5615 5615 5615 5615 5614 5614 5614 5614 5613 5613 5613 5612 5612 5611 5610 5609 5608 5607 5606 5604 5602 5599 5597 5594 5591 5588 5586 5584 5582 5581 5579 5577 5575 5573 5572
5618 5618 5618 5619 5618 5618 5617 5617 5617 5617 5617 5617 5617 5617 5616 5616 5615 5615 5615 5614 5613 5612 5612 5611 5609 5608 5607 5604 5602 5599 5596 5593 5590 5587 5584 5582 5580 5579 5577 5574 5573 5571 5569